iso_date,epoch_date,Year,Hour,Min,DOY,POS_DOY,Lat,Lon,BP,Ts,Ta,has_bp,has_ts,has_ta,BuoyID,Buoy_Type,Buoy_Owner,Logistics,Hemisphere
2012-04-15T22:35:02Z,1334529302,2012,22,35,106.941,106.941,89.315,1.9004,1013.19,-999.00,-13.09,yes,no,yes,300025010711490,unknown,unknown,unknown,North
2012-04-15T22:59:31Z,1334530771,2012,23,0,106.958,106.958,89.3136,1.8914,1013.22,-999.00,-12.93,yes,no,yes,300025010711490,unknown,unknown,unknown,North
2012-04-16T00:00:00Z,1334534400,2012,0,0,107.0,107.0,89.3104,1.8731,1013.19,-999.00,-13.18,yes,no,yes,300025010711490,unknown,unknown,unknown,North
2012-04-16T01:00:28Z,1334538029,2012,1,0,107.042,107.042,89.3071,1.8726,1013.15,-999.00,-13.24,yes,no,yes,300025010711490,unknown,unknown,unknown,North
2012-04-16T01:59:31Z,1334541571,2012,2,0,107.083,107.083,89.3038,1.8709,1012.91,-999.00,-13.99,yes,no,yes,300025010711490,unknown,unknown,unknown,North
2012-04-16T03:00:00Z,1334545200,2012,3,0,107.125,107.125,89.3007,1.8604,1012.64,-999.00,-13.98,yes,no,yes,300025010711490,unknown,unknown,unknown,North
2012-04-16T04:00:28Z,1334548829,2012,4,0,107.167,107.167,89.2976,1.8459,1012.43,-999.00,-14.13,yes,no,yes,300025010711490,unknown,unknown,unknown,North
2012-04-16T04:59:31Z,1334552371,2012,5,0,107.208,107.208,89.2946,1.8378,1012.05,-999.00,-14.24,yes,no,yes,300025010711490,unknown,unknown,unknown,North
2012-04-16T06:00:00Z,1334556000,2012,6,0,107.25,107.25,89.2917,1.8176,1011.63,-999.00,-14.43,yes,no,yes,300025010711490,unknown,unknown,unknown,North
2012-04-16T07:00:28Z,1334559629,2012,7,0,107.292,107.292,89.2888,1.8017,1011.56,-999.00,-14.41,yes,no,yes,300025010711490,unknown,unknown,unknown,North
2012-04-16T07:59:31Z,1334563171,2012,8,0,107.333,107.333,89.2861,1.79,1011.22,-999.00,-14.45,yes,no,yes,300025010711490,unknown,unknown,unknown,North
2012-04-16T09:00:00Z,1334566800,2012,9,0,107.375,107.375,89.2835,1.7709,1011.0,-999.00,-14.5,yes,no,yes,300025010711490,unknown,unknown,unknown,North
2012-04-16T10:00:28Z,1334570429,2012,10,0,107.417,107.417,89.281,1.7497,1010.72,-999.00,-14.46,yes,no,yes,300025010711490,unknown,unknown,unknown,North
2012-04-16T10:59:31Z,1334573971,2012,11,0,107.458,107.458,89.2788,1.7202,1010.45,-999.00,-14.48,yes,no,yes,300025010711490,unknown,unknown,unknown,North
2012-04-16T12:00:00Z,1334577600,2012,12,0,107.5,107.5,89.2768,1.6887,1010.45,-999.00,-15.1,yes,no,yes,300025010711490,unknown,unknown,unknown,North
2012-04-16T13:00:28Z,1334581229,2012,13,0,107.542,107.542,89.2752,1.6561,1009.96,-999.00,-15.66,yes,no,yes,300025010711490,unknown,unknown,unknown,North
2012-04-16T13:59:31Z,1334584771,2012,14,0,107.583,107.583,89.2736,1.5977,1009.86,-999.00,-15.91,yes,no,yes,300025010711490,unknown,unknown,unknown,North
2012-04-16T15:00:00Z,1334588400,2012,15,0,107.625,107.625,89.272,1.5313,1009.82,-999.00,-17.39,yes,no,yes,300025010711490,unknown,unknown,unknown,North
2012-04-16T16:00:28Z,1334592029,2012,16,0,107.667,107.667,89.2705,1.4392,1009.86,-999.00,-17.25,yes,no,yes,300025010711490,unknown,unknown,unknown,North
2012-04-16T16:59:31Z,1334595571,2012,17,0,107.708,107.708,89.2691,1.3371,1009.63,-999.00,-17.25,yes,no,yes,300025010711490,unknown,unknown,unknown,North
2012-04-16T18:00:00Z,1334599200,2012,18,0,107.75,107.75,89.2676,1.232,1009.72,-999.00,-16.49,yes,no,yes,300025010711490,unknown,unknown,unknown,North
2012-04-16T19:00:28Z,1334602829,2012,19,0,107.792,107.792,89.2661,1.1201,1010.07,-999.00,-15.97,yes,no,yes,300025010711490,unknown,unknown,unknown,North
2012-04-16T19:59:31Z,1334606371,2012,20,0,107.833,107.833,89.2646,1.0006,1010.49,-999.00,-18.43,yes,no,yes,300025010711490,unknown,unknown,unknown,North
2012-04-16T21:00:00Z,1334610000,2012,21,0,107.875,107.875,89.2632,0.8747,1010.87,-999.00,-19.11,yes,no,yes,300025010711490,unknown,unknown,unknown,North
2012-04-16T22:00:28Z,1334613629,2012,22,0,107.917,107.917,89.2613,0.7493,1011.23,-999.00,-19.79,yes,no,yes,300025010711490,unknown,unknown,unknown,North
2012-04-16T22:59:31Z,1334617171,2012,23,0,107.958,107.958,89.2596,0.6186,1011.58,-999.00,-20.34,yes,no,yes,300025010711490,unknown,unknown,unknown,North
2012-04-17T00:00:00Z,1334620800,2012,0,0,108.0,108.0,89.2581,0.4836,1011.86,-999.00,-20.58,yes,no,yes,300025010711490,unknown,unknown,unknown,North
2012-04-17T01:00:28Z,1334624429,2012,1,0,108.042,108.042,89.2566,0.3509,1012.0,-999.00,-19.82,yes,no,yes,300025010711490,unknown,unknown,unknown,North
2012-04-17T01:59:31Z,1334627971,2012,2,0,108.083,108.083,89.2551,0.2044,1012.49,-999.00,-18.71,yes,no,yes,300025010711490,unknown,unknown,unknown,North
2012-04-17T03:00:00Z,1334631600,2012,3,0,108.125,108.125,89.2538,0.0711,1012.91,-999.00,-17.07,yes,no,yes,300025010711490,unknown,unknown,unknown,North
2012-04-17T04:00:28Z,1334635229,2012,4,0,108.167,108.167,89.2527,-0.0644,1013.47,-999.00,-17.44,yes,no,yes,300025010711490,unknown,unknown,unknown,North
2012-04-17T04:59:31Z,1334638771,2012,5,0,108.208,108.208,89.2518,-0.2029,1013.82,-999.00,-20.25,yes,no,yes,300025010711490,unknown,unknown,unknown,North
2012-04-17T06:00:00Z,1334642400,2012,6,0,108.25,108.25,89.2512,-0.3584,1014.38,-999.00,-21.05,yes,no,yes,300025010711490,unknown,unknown,unknown,North
2012-04-17T07:00:28Z,1334646029,2012,7,0,108.292,108.292,89.2506,-0.487,1015.08,-999.00,-21.16,yes,no,yes,300025010711490,unknown,unknown,unknown,North
2012-04-17T07:59:31Z,1334649571,2012,8,0,108.333,108.333,89.2501,-0.6211,1015.99,-999.00,-21.79,yes,no,yes,300025010711490,unknown,unknown,unknown,North
2012-04-17T09:00:00Z,1334653200,2012,9,0,108.375,108.375,89.2496,-0.7358,1016.56,-999.00,-22.65,yes,no,yes,300025010711490,unknown,unknown,unknown,North
2012-04-17T10:00:28Z,1334656829,2012,10,0,108.417,108.417,89.2495,-0.8379,1017.4,-999.00,-22.72,yes,no,yes,300025010711490,unknown,unknown,unknown,North
2012-04-17T10:59:31Z,1334660371,2012,11,0,108.458,108.458,89.2493,-0.9295,1018.1,-999.00,-23.07,yes,no,yes,300025010711490,unknown,unknown,unknown,North
2012-04-17T12:00:00Z,1334664000,2012,12,0,108.5,108.5,89.2492,-0.9735,1018.66,-999.00,-23.06,yes,no,yes,300025010711490,unknown,unknown,unknown,North
2012-04-17T13:00:28Z,1334667629,2012,13,0,108.542,108.542,89.2489,-1.0326,1019.29,-999.00,-23.39,yes,no,yes,300025010711490,unknown,unknown,unknown,North
2012-04-17T13:59:31Z,1334671171,2012,14,0,108.583,108.583,89.2486,-1.101,1019.78,-999.00,-22.86,yes,no,yes,300025010711490,unknown,unknown,unknown,North
2012-04-17T15:00:00Z,1334674800,2012,15,0,108.625,108.625,89.2486,-1.1339,1020.41,-999.00,-20.65,yes,no,yes,300025010711490,unknown,unknown,unknown,North
2012-04-17T16:00:28Z,1334678429,2012,16,0,108.667,108.667,89.2485,-1.1746,1020.9,-999.00,-19.86,yes,no,yes,300025010711490,unknown,unknown,unknown,North
2012-04-17T16:59:31Z,1334681971,2012,17,0,108.708,108.708,89.2485,-1.2042,1021.18,-999.00,-19.71,yes,no,yes,300025010711490,unknown,unknown,unknown,North
2012-04-17T18:00:00Z,1334685600,2012,18,0,108.75,108.75,89.2483,-1.2673,1021.53,-999.00,-20.0,yes,no,yes,300025010711490,unknown,unknown,unknown,North
2012-04-17T19:00:28Z,1334689229,2012,19,0,108.792,108.792,89.2481,-1.3063,1021.68,-999.00,-20.0,yes,no,yes,300025010711490,unknown,unknown,unknown,North
2012-04-17T19:59:31Z,1334692771,2012,20,0,108.833,108.833,89.2478,-1.3458,1022.38,-999.00,-20.57,yes,no,yes,300025010711490,unknown,unknown,unknown,North
2012-04-17T21:00:00Z,1334696400,2012,21,0,108.875,108.875,89.2474,-1.3896,1022.66,-999.00,-20.06,yes,no,yes,300025010711490,unknown,unknown,unknown,North
2012-04-17T22:00:28Z,1334700029,2012,22,0,108.917,108.917,89.2472,-1.4057,1023.01,-999.00,-19.28,yes,no,yes,300025010711490,unknown,unknown,unknown,North
2012-04-17T22:59:31Z,1334703571,2012,23,0,108.958,108.958,89.2467,-1.435,1023.43,-999.00,-18.63,yes,no,yes,300025010711490,unknown,unknown,unknown,North
2012-04-18T00:00:00Z,1334707200,2012,0,0,109.0,109.0,89.2464,-1.4886,1023.71,-999.00,-18.25,yes,no,yes,300025010711490,unknown,unknown,unknown,North
2012-04-18T01:00:28Z,1334710829,2012,1,0,109.042,109.042,89.246,-1.5396,1024.06,-999.00,-18.07,yes,no,yes,300025010711490,unknown,unknown,unknown,North
2012-04-18T01:59:31Z,1334714371,2012,2,0,109.083,109.083,89.2458,-1.5858,1024.13,-999.00,-18.7,yes,no,yes,300025010711490,unknown,unknown,unknown,North
2012-04-18T03:00:00Z,1334718000,2012,3,0,109.125,109.125,89.2452,-1.6626,1024.45,-999.00,-18.47,yes,no,yes,300025010711490,unknown,unknown,unknown,North
2012-04-18T04:00:28Z,1334721629,2012,4,0,109.167,109.167,89.2446,-1.7562,1024.73,-999.00,-18.87,yes,no,yes,300025010711490,unknown,unknown,unknown,North
2012-04-18T04:59:31Z,1334725171,2012,5,0,109.208,109.208,89.2439,-1.8586,1025.04,-999.00,-19.2,yes,no,yes,300025010711490,unknown,unknown,unknown,North
2012-04-18T06:00:00Z,1334728800,2012,6,0,109.25,109.25,89.2432,-1.9419,1025.29,-999.00,-19.72,yes,no,yes,300025010711490,unknown,unknown,unknown,North
2012-04-18T07:00:28Z,1334732429,2012,7,0,109.292,109.292,89.2428,-2.007,1025.53,-999.00,-18.98,yes,no,yes,300025010711490,unknown,unknown,unknown,North
2012-04-18T07:59:31Z,1334735971,2012,8,0,109.333,109.333,89.2424,-2.0096,1025.81,-999.00,-18.66,yes,no,yes,300025010711490,unknown,unknown,unknown,North
2012-04-18T09:00:00Z,1334739600,2012,9,0,109.375,109.375,89.2414,-2.0453,1026.16,-999.00,-18.77,yes,no,yes,300025010711490,unknown,unknown,unknown,North
2012-04-18T10:00:28Z,1334743229,2012,10,0,109.417,109.417,89.2404,-2.1181,1026.44,-999.00,-18.86,yes,no,yes,300025010711490,unknown,unknown,unknown,North
2012-04-18T10:59:31Z,1334746771,2012,11,0,109.458,109.458,89.2388,-2.1739,1026.51,-999.00,-18.7,yes,no,yes,300025010711490,unknown,unknown,unknown,North
2012-04-18T12:00:00Z,1334750400,2012,12,0,109.5,109.5,89.2375,-2.2338,1026.86,-999.00,-18.86,yes,no,yes,300025010711490,unknown,unknown,unknown,North
2012-04-18T13:00:28Z,1334754029,2012,13,0,109.542,109.542,89.2359,-2.3061,1026.79,-999.00,-18.94,yes,no,yes,300025010711490,unknown,unknown,unknown,North
2012-04-18T13:59:31Z,1334757571,2012,14,0,109.583,109.583,89.2348,-2.3354,1026.9,-999.00,-18.71,yes,no,yes,300025010711490,unknown,unknown,unknown,North
2012-04-18T15:00:00Z,1334761200,2012,15,0,109.625,109.625,89.2339,-2.3508,1026.93,-999.00,-18.64,yes,no,yes,300025010711490,unknown,unknown,unknown,North
2012-04-18T16:00:28Z,1334764829,2012,16,0,109.667,109.667,89.2328,-2.3689,1027.0,-999.00,-18.77,yes,no,yes,300025010711490,unknown,unknown,unknown,North
2012-04-18T16:59:31Z,1334768371,2012,17,0,109.708,109.708,89.2314,-2.4186,1026.79,-999.00,-18.75,yes,no,yes,300025010711490,unknown,unknown,unknown,North
2012-04-18T18:00:00Z,1334772000,2012,18,0,109.75,109.75,89.2297,-2.4409,1026.72,-999.00,-19.15,yes,no,yes,300025010711490,unknown,unknown,unknown,North
2012-04-18T19:00:28Z,1334775629,2012,19,0,109.792,109.792,89.2276,-2.4922,1026.65,-999.00,-19.4,yes,no,yes,300025010711490,unknown,unknown,unknown,North
2012-04-18T19:59:31Z,1334779171,2012,20,0,109.833,109.833,89.2257,-2.5171,1026.65,-999.00,-19.58,yes,no,yes,300025010711490,unknown,unknown,unknown,North
2012-04-18T21:00:00Z,1334782800,2012,21,0,109.875,109.875,89.2241,-2.5361,1026.79,-999.00,-19.03,yes,no,yes,300025010711490,unknown,unknown,unknown,North
2012-04-18T22:00:28Z,1334786429,2012,22,0,109.917,109.917,89.2222,-2.5579,1026.79,-999.00,-18.53,yes,no,yes,300025010711490,unknown,unknown,unknown,North
2012-04-18T22:59:31Z,1334789971,2012,23,0,109.958,109.958,89.2204,-2.5733,1026.62,-999.00,-18.14,yes,no,yes,300025010711490,unknown,unknown,unknown,North
2012-04-19T00:00:00Z,1334793600,2012,0,0,110.0,110.0,89.218,-2.624,1026.37,-999.00,-17.7,yes,no,yes,300025010711490,unknown,unknown,unknown,North
2012-04-19T01:00:28Z,1334797229,2012,1,0,110.042,110.042,89.2159,-2.676,1026.16,-999.00,-17.41,yes,no,yes,300025010711490,unknown,unknown,unknown,North
2012-04-19T01:59:31Z,1334800771,2012,2,0,110.083,110.083,89.2137,-2.7283,1025.88,-999.00,-17.38,yes,no,yes,300025010711490,unknown,unknown,unknown,North
2012-04-19T03:00:00Z,1334804400,2012,3,0,110.125,110.125,89.2118,-2.7796,1025.67,-999.00,-17.33,yes,no,yes,300025010711490,unknown,unknown,unknown,North
2012-04-20T00:00:00Z,1334880000,2012,0,0,111.0,111.0,89.1638,-3.8114,1022.31,-999.00,-21.66,yes,no,yes,300025010711490,unknown,unknown,unknown,North
2012-04-20T01:00:28Z,1334883629,2012,1,0,111.042,111.042,89.1617,-3.8382,1022.45,-999.00,-21.9,yes,no,yes,300025010711490,unknown,unknown,unknown,North
2012-04-20T01:59:31Z,1334887171,2012,2,0,111.083,111.083,89.1594,-3.8767,1022.45,-999.00,-21.7,yes,no,yes,300025010711490,unknown,unknown,unknown,North
2012-04-20T03:00:00Z,1334890800,2012,3,0,111.125,111.125,89.1571,-3.9192,1022.52,-999.00,-21.73,yes,no,yes,300025010711490,unknown,unknown,unknown,North
2012-04-20T04:00:28Z,1334894429,2012,4,0,111.167,111.167,89.1548,-3.9687,1022.45,-999.00,-22.22,yes,no,yes,300025010711490,unknown,unknown,unknown,North
2012-04-20T04:59:31Z,1334897971,2012,5,0,111.208,111.208,89.1521,-4.0101,1022.45,-999.00,-22.62,yes,no,yes,300025010711490,unknown,unknown,unknown,North
2012-04-20T06:00:00Z,1334901600,2012,6,0,111.25,111.25,89.1494,-4.0748,1022.59,-999.00,-23.04,yes,no,yes,300025010711490,unknown,unknown,unknown,North
2012-04-20T07:00:28Z,1334905229,2012,7,0,111.292,111.292,89.1465,-4.1398,1022.59,-999.00,-23.36,yes,no,yes,300025010711490,unknown,unknown,unknown,North
2012-04-20T07:59:31Z,1334908771,2012,8,0,111.333,111.333,89.1433,-4.2099,1022.8,-999.00,-23.41,yes,no,yes,300025010711490,unknown,unknown,unknown,North
2012-04-20T09:00:00Z,1334912400,2012,9,0,111.375,111.375,89.1401,-4.2793,1022.94,-999.00,-23.47,yes,no,yes,300025010711490,unknown,unknown,unknown,North
2012-04-20T10:00:28Z,1334916029,2012,10,0,111.417,111.417,89.137,-4.3475,1023.15,-999.00,-23.62,yes,no,yes,300025010711490,unknown,unknown,unknown,North
2012-04-20T10:59:31Z,1334919571,2012,11,0,111.458,111.458,89.1345,-4.3882,1023.08,-999.00,-23.53,yes,no,yes,300025010711490,unknown,unknown,unknown,North
2012-04-20T12:00:00Z,1334923200,2012,12,0,111.5,111.5,89.1323,-4.413,1023.15,-999.00,-23.34,yes,no,yes,300025010711490,unknown,unknown,unknown,North
2012-04-20T13:00:28Z,1334926829,2012,13,0,111.542,111.542,89.1304,-4.428,1023.22,-999.00,-23.22,yes,no,yes,300025010711490,unknown,unknown,unknown,North
2012-04-20T13:59:31Z,1334930371,2012,14,0,111.583,111.583,89.1286,-4.4365,1023.36,-999.00,-22.87,yes,no,yes,300025010711490,unknown,unknown,unknown,North
2012-04-20T15:00:00Z,1334934000,2012,15,0,111.625,111.625,89.1268,-4.4368,1023.43,-999.00,-22.75,yes,no,yes,300025010711490,unknown,unknown,unknown,North
2012-04-20T16:00:28Z,1334937629,2012,16,0,111.667,111.667,89.1251,-4.4459,1023.39,-999.00,-22.58,yes,no,yes,300025010711490,unknown,unknown,unknown,North
2012-04-20T16:59:31Z,1334941171,2012,17,0,111.708,111.708,89.1233,-4.4372,1023.36,-999.00,-22.69,yes,no,yes,300025010711490,unknown,unknown,unknown,North
2012-04-20T18:00:00Z,1334944800,2012,18,0,111.75,111.75,89.1214,-4.4451,1023.32,-999.00,-22.81,yes,no,yes,300025010711490,unknown,unknown,unknown,North
2012-04-20T19:00:28Z,1334948429,2012,19,0,111.792,111.792,89.1193,-4.4416,1023.43,-999.00,-22.65,yes,no,yes,300025010711490,unknown,unknown,unknown,North
2012-04-20T19:59:31Z,1334951971,2012,20,0,111.833,111.833,89.1173,-4.4418,1023.78,-999.00,-22.22,yes,no,yes,300025010711490,unknown,unknown,unknown,North
2012-04-20T21:00:00Z,1334955600,2012,21,0,111.875,111.875,89.1152,-4.4405,1023.71,-999.00,-22.34,yes,no,yes,300025010711490,unknown,unknown,unknown,North
2012-04-20T22:00:28Z,1334959229,2012,22,0,111.917,111.917,89.1133,-4.4412,1023.85,-999.00,-22.86,yes,no,yes,300025010711490,unknown,unknown,unknown,North
2012-04-20T22:59:31Z,1334962771,2012,23,0,111.958,111.958,89.1117,-4.4208,1023.74,-999.00,-22.44,yes,no,yes,300025010711490,unknown,unknown,unknown,North
2012-04-21T00:00:00Z,1334966400,2012,0,0,112.0,112.0,89.1101,-4.3959,1023.67,-999.00,-22.24,yes,no,yes,300025010711490,unknown,unknown,unknown,North
2012-04-21T01:00:28Z,1334970029,2012,1,0,112.042,112.042,89.1089,-4.3625,1023.6,-999.00,-21.1,yes,no,yes,300025010711490,unknown,unknown,unknown,North
2012-04-21T01:59:31Z,1334973571,2012,2,0,112.083,112.083,89.1076,-4.3303,1023.43,-999.00,-21.13,yes,no,yes,300025010711490,unknown,unknown,unknown,North
2012-04-21T03:00:00Z,1334977200,2012,3,0,112.125,112.125,89.1062,-4.3019,1023.36,-999.00,-20.99,yes,no,yes,300025010711490,unknown,unknown,unknown,North
2012-04-21T04:00:28Z,1334980829,2012,4,0,112.167,112.167,89.1048,-4.2755,1023.01,-999.00,-20.5,yes,no,yes,300025010711490,unknown,unknown,unknown,North
2012-04-21T04:59:31Z,1334984371,2012,5,0,112.208,112.208,89.1033,-4.2432,1022.8,-999.00,-20.6,yes,no,yes,300025010711490,unknown,unknown,unknown,North
2012-04-21T06:00:00Z,1334988000,2012,6,0,112.25,112.25,89.1016,-4.2043,1022.73,-999.00,-20.31,yes,no,yes,300025010711490,unknown,unknown,unknown,North
2012-04-21T07:00:28Z,1334991629,2012,7,0,112.292,112.292,89.0997,-4.1777,1022.76,-999.00,-20.03,yes,no,yes,300025010711490,unknown,unknown,unknown,North
2012-04-21T07:59:31Z,1334995171,2012,8,0,112.333,112.333,89.0976,-4.155,1022.59,-999.00,-19.87,yes,no,yes,300025010711490,unknown,unknown,unknown,North
2012-04-21T09:00:00Z,1334998800,2012,9,0,112.375,112.375,89.0952,-4.1317,1022.45,-999.00,-19.88,yes,no,yes,300025010711490,unknown,unknown,unknown,North
2012-04-21T10:00:28Z,1335002429,2012,10,0,112.417,112.417,89.0927,-4.1211,1022.31,-999.00,-19.98,yes,no,yes,300025010711490,unknown,unknown,unknown,North
2012-04-21T10:59:31Z,1335005971,2012,11,0,112.458,112.458,89.0901,-4.0997,1022.27,-999.00,-19.88,yes,no,yes,300025010711490,unknown,unknown,unknown,North
2012-04-21T12:00:00Z,1335009600,2012,12,0,112.5,112.5,89.088,-4.0602,1021.78,-999.00,-19.56,yes,no,yes,300025010711490,unknown,unknown,unknown,North
2012-04-21T13:00:28Z,1335013229,2012,13,0,112.542,112.542,89.0859,-4.0057,1021.25,-999.00,-19.86,yes,no,yes,300025010711490,unknown,unknown,unknown,North
2012-04-21T13:59:31Z,1335016771,2012,14,0,112.583,112.583,89.0838,-3.9447,1020.97,-999.00,-21.61,yes,no,yes,300025010711490,unknown,unknown,unknown,North
2012-04-21T15:00:00Z,1335020400,2012,15,0,112.625,112.625,89.0816,-3.8824,1020.76,-999.00,-21.89,yes,no,yes,300025010711490,unknown,unknown,unknown,North
2012-04-21T16:00:28Z,1335024029,2012,16,0,112.667,112.667,89.0793,-3.8245,1020.34,-999.00,-21.27,yes,no,yes,300025010711490,unknown,unknown,unknown,North
2012-04-21T16:59:31Z,1335027571,2012,17,0,112.708,112.708,89.0768,-3.7689,1019.99,-999.00,-21.37,yes,no,yes,300025010711490,unknown,unknown,unknown,North
2012-04-21T18:00:00Z,1335031200,2012,18,0,112.75,112.75,89.0743,-3.7202,1019.78,-999.00,-21.57,yes,no,yes,300025010711490,unknown,unknown,unknown,North
2012-04-21T19:00:28Z,1335034829,2012,19,0,112.792,112.792,89.0715,-3.6761,1019.85,-999.00,-21.57,yes,no,yes,300025010711490,unknown,unknown,unknown,North
2012-04-21T19:59:31Z,1335038371,2012,20,0,112.833,112.833,89.0687,-3.6378,1019.71,-999.00,-21.96,yes,no,yes,300025010711490,unknown,unknown,unknown,North
2012-04-21T21:00:00Z,1335042000,2012,21,0,112.875,112.875,89.0661,-3.5972,1019.5,-999.00,-22.81,yes,no,yes,300025010711490,unknown,unknown,unknown,North
2012-04-21T22:00:28Z,1335045629,2012,22,0,112.917,112.917,89.0636,-3.5531,1019.5,-999.00,-23.48,yes,no,yes,300025010711490,unknown,unknown,unknown,North
2012-04-21T22:59:31Z,1335049171,2012,23,0,112.958,112.958,89.0612,-3.5032,1019.36,-999.00,-23.85,yes,no,yes,300025010711490,unknown,unknown,unknown,North
2012-04-22T00:00:00Z,1335052800,2012,0,0,113.0,113.0,89.059,-3.4396,1019.01,-999.00,-24.21,yes,no,yes,300025010711490,unknown,unknown,unknown,North
2012-04-22T01:00:28Z,1335056429,2012,1,0,113.042,113.042,89.0571,-3.3887,1018.76,-999.00,-24.26,yes,no,yes,300025010711490,unknown,unknown,unknown,North
2012-04-22T01:59:31Z,1335059971,2012,2,0,113.083,113.083,89.0548,-3.3106,1018.38,-999.00,-24.07,yes,no,yes,300025010711490,unknown,unknown,unknown,North
2012-04-22T03:00:00Z,1335063600,2012,3,0,113.125,113.125,89.0526,-3.2364,1018.1,-999.00,-24.51,yes,no,yes,300025010711490,unknown,unknown,unknown,North
2012-04-22T04:00:28Z,1335067229,2012,4,0,113.167,113.167,89.0503,-3.1574,1017.89,-999.00,-24.58,yes,no,yes,300025010711490,unknown,unknown,unknown,North
2012-04-22T04:59:31Z,1335070771,2012,5,0,113.208,113.208,89.0482,-3.0726,1017.83,-999.00,-24.4,yes,no,yes,300025010711490,unknown,unknown,unknown,North
2012-04-22T06:00:00Z,1335074400,2012,6,0,113.25,113.25,89.046,-2.9878,1017.64,-999.00,-24.36,yes,no,yes,300025010711490,unknown,unknown,unknown,North
2012-04-22T07:00:28Z,1335078029,2012,7,0,113.292,113.292,89.0436,-2.9077,1017.55,-999.00,-24.2,yes,no,yes,300025010711490,unknown,unknown,unknown,North
2012-04-22T07:59:31Z,1335081571,2012,8,0,113.333,113.333,89.041,-2.8202,1017.57,-999.00,-24.26,yes,no,yes,300025010711490,unknown,unknown,unknown,North
2012-04-22T09:00:00Z,1335085200,2012,9,0,113.375,113.375,89.0385,-2.7371,1017.59,-999.00,-24.26,yes,no,yes,300025010711490,unknown,unknown,unknown,North
2012-04-22T10:00:28Z,1335088829,2012,10,0,113.417,113.417,89.0358,-2.6498,1017.72,-999.00,-24.15,yes,no,yes,300025010711490,unknown,unknown,unknown,North
2012-04-22T10:59:31Z,1335092371,2012,11,0,113.458,113.458,89.0331,-2.5551,1017.63,-999.00,-24.17,yes,no,yes,300025010711490,unknown,unknown,unknown,North
2012-04-22T12:00:00Z,1335096000,2012,12,0,113.5,113.5,89.0307,-2.4544,1017.37,-999.00,-24.29,yes,no,yes,300025010711490,unknown,unknown,unknown,North
2012-04-22T13:00:28Z,1335099629,2012,13,0,113.542,113.542,89.0284,-2.3543,1017.24,-999.00,-24.44,yes,no,yes,300025010711490,unknown,unknown,unknown,North
2012-04-22T13:59:31Z,1335103171,2012,14,0,113.583,113.583,89.026,-2.2344,1017.32,-999.00,-24.48,yes,no,yes,300025010711490,unknown,unknown,unknown,North
2012-04-22T15:00:00Z,1335106800,2012,15,0,113.625,113.625,89.0239,-2.1269,1017.32,-999.00,-24.58,yes,no,yes,300025010711490,unknown,unknown,unknown,North
2012-04-22T16:00:28Z,1335110429,2012,16,0,113.667,113.667,89.0219,-2.0078,1017.39,-999.00,-24.61,yes,no,yes,300025010711490,unknown,unknown,unknown,North
2012-04-22T16:59:31Z,1335113971,2012,17,0,113.708,113.708,89.0199,-1.8868,1017.25,-999.00,-24.71,yes,no,yes,300025010711490,unknown,unknown,unknown,North
2012-04-22T18:00:00Z,1335117600,2012,18,0,113.75,113.75,89.0181,-1.7812,1017.1,-999.00,-24.66,yes,no,yes,300025010711490,unknown,unknown,unknown,North
2012-04-22T19:00:28Z,1335121229,2012,19,0,113.792,113.792,89.0163,-1.6731,1017.07,-999.00,-24.84,yes,no,yes,300025010711490,unknown,unknown,unknown,North
2012-04-22T19:59:31Z,1335124771,2012,20,0,113.833,113.833,89.0145,-1.5668,1017.17,-999.00,-24.69,yes,no,yes,300025010711490,unknown,unknown,unknown,North
2012-04-22T21:00:00Z,1335128400,2012,21,0,113.875,113.875,89.0127,-1.4615,1017.29,-999.00,-24.55,yes,no,yes,300025010711490,unknown,unknown,unknown,North
2012-04-22T22:00:28Z,1335132029,2012,22,0,113.917,113.917,89.011,-1.3605,1017.28,-999.00,-24.67,yes,no,yes,300025010711490,unknown,unknown,unknown,North
2012-04-22T22:59:31Z,1335135571,2012,23,0,113.958,113.958,89.0094,-1.2535,1017.22,-999.00,-24.8,yes,no,yes,300025010711490,unknown,unknown,unknown,North
2012-04-23T00:00:00Z,1335139200,2012,0,0,114.0,114.0,89.0078,-1.1515,1017.23,-999.00,-25.03,yes,no,yes,300025010711490,unknown,unknown,unknown,North
2012-04-23T01:00:28Z,1335142829,2012,1,0,114.042,114.042,89.0063,-1.0509,1017.1,-999.00,-25.06,yes,no,yes,300025010711490,unknown,unknown,unknown,North
2012-04-23T01:59:31Z,1335146371,2012,2,0,114.083,114.083,89.0049,-0.9556,1017.11,-999.00,-24.72,yes,no,yes,300025010711490,unknown,unknown,unknown,North
2012-04-23T03:00:00Z,1335150000,2012,3,0,114.125,114.125,89.0036,-0.8593,1017.11,-999.00,-24.4,yes,no,yes,300025010711490,unknown,unknown,unknown,North
2012-04-23T04:00:28Z,1335153629,2012,4,0,114.167,114.167,89.0025,-0.7671,1017.11,-999.00,-24.77,yes,no,yes,300025010711490,unknown,unknown,unknown,North
2012-04-23T04:59:31Z,1335157171,2012,5,0,114.208,114.208,89.0013,-0.6755,1017.11,-999.00,-24.58,yes,no,yes,300025010711490,unknown,unknown,unknown,North